Location: Napa Soda Springs
(38.3907°N, 122.2794°W)
Time: 20:59:58
(UTC+00:00)

Cosmos 1726 Rocket - Pass Details

Date: 29 October 2020
Orbit: 604 x 629 km, 82.5° (Epoch: 24 November)

Event Time Altitude Azimuth Distance (km) Brightness Sun altitude
Rises 12:57:00 0° 351° (N) 2,921 6.9 -19.3°
Reaches altitude 10° 12:59:14 10° 350° (N) 2,011 6.0 -18.9°
Maximum altitude 13:03:42 77° 264° (W) 648 3.4 -18.0°
Drops below altitude 10° 13:08:07 10° 179° (S) 1,998 6.2 -17.1°
Sets 13:10:20 0° 178° (S) 2,899 7.1 -16.7°
